Regional Weather Roundup
Issued by NWS

Home | Current Version | Previous Version | Text Only | Print | Product List | Glossary On
Versions: 1 2 3 4 5 6 7 8 9 10 11 12 13 14 15 16 17 18 19 20 21 22 23 24 25 26 27 28 29 30 31 32 33 34 35 36 37 38 39 40 41 42 43 44 45 46 47 48 49 50
000
ASUS46 KPQR 211910
RWROR

OREGON REGIONAL WEATHER ROUNDUP
NATIONAL WEATHER SERVICE PORTLAND OR
1200 PM PDT FRI JUL 21 2017

NOTE: "FAIR" INDICATES FEW OR NO CLOUDS BELOW 12,000 FEET WITH
NO SIGNIFICANT WEATHER AND/OR OBSTRUCTIONS TO VISIBILITY.

ORZ001>013-212000-
NORTHWEST OREGON


CITY           SKY/WX    TMP DP  RH WIND       PRES   REMARKS
ASTORIA        SUNNY     67  53  61 W7        30.16S
NEWPORT        SUNNY     63  55  77 W6        30.21S
PORTLAND       MOSUNNY   73  53  49 VRB6      30.15F
VANCOUVER WA   SUNNY     71  54  54 CALM      30.15F
SCAPPOOSE      SUNNY     72  53  51 SE8       30.14F
HILLSBORO      SUNNY     72  54  53 S6        30.15S
AURORA         MOSUNNY   74  54  49 VRB5      30.16F
MCMINNVILLE    SUNNY     72  54  53 CALM      30.16F
SALEM          SUNNY     74  52  46 CALM      30.14F
CORVALLIS      SUNNY     73  54  49 CALM      30.17S
EUGENE         MOSUNNY   72  52  49 W5        30.16S
$$

ORZ021-028-212000-
SOUTHWEST OREGON


CITY           SKY/WX    TMP DP  RH WIND       PRES   REMARKS
NORTH BEND     SUNNY     66  54  65 NW7       30.19R
BROOKINGS      SUNNY     61  53  75 VRB3      30.15F
ROSEBURG       SUNNY     72  52  49 NW5       30.14F
SEXTON SUMMIT  SUNNY     67  50  54 VRB3      30.21S
GRANTS PASS    FAIR      75  52  43 NE3       30.15F
MEDFORD        SUNNY     78  53  41 VRB3      30.10F
$$

ORZ014>016-041-212000-
COLUMBIA GORGE


CITY           SKY/WX    TMP DP  RH WIND       PRES   REMARKS
TROUTDALE      SUNNY     74  51  44 N6        30.14F
HOOD RIVER     SUNNY     75  50  41 NW12G17   30.11F
THE DALLES     SUNNY     80  51  36 N14       30.08F
$$

ORZ029>031-041-044-049-050-061>064-502-503-505>511-212000-
EASTERN OREGON


CITY           SKY/WX    TMP DP  RH WIND       PRES   REMARKS
MADRAS         SUNNY     72  41  33 W3        30.16F
REDMOND        SUNNY     77  37  23 N7        30.15F
BEND           SUNNY     79  36  21 VRB6      30.17F
PRINEVILLE     SUNNY     75  37  25 VRB7      30.16F
KLAMATH FALLS  SUNNY     78  47  33 W7        30.17F
LAKEVIEW       SUNNY     79  40  24 VRB6      30.19F
HERMISTON      SUNNY     78  46  32 VRB3      30.10F
PENDLETON      SUNNY     77  44  30 W14       30.11F
JOHN DAY       SUNNY     78  32  19 CALM      30.16F
MEACHAM        SUNNY     73  32  22 VRB3      30.18F
LA GRANDE      SUNNY     75  37  25 E5        30.13F
BAKER CITY     SUNNY     75  38  26 W3        30.15F
BURNS          SUNNY     81  33  17 CALM      30.16F
ROME             N/A     86  32  14 VRB5      30.12F
ONTARIO        SUNNY     86  44  23 VRB3      30.07F
$$



USA.gov is the U.S. government's official web portal to all federal, state and local government web resources and services.